Tracking 29091 objects as of 17-Jul-2024
HD Live streaming from Space Station
objects crossing your sky now

ATLAS 5 CENTAUR DEB

Track ATLAS 5 CENTAUR DEB now!


NORAD ID: 49348
Int'l Code: 2018-079EZ
Perigee: 8,522.4 km
Apogee: 31,620.9 km
Inclination: 12.5 °
Period: 713.2 minutes
Semi major axis: 26442 km
RCS: Unknown
Launch date: October 17, 2018
Source: United States (US)
Launch site: AIR FORCE EASTERN TEST RANGE (AFETR)

Note: This is SATELLITE DEBRIS
Your satellite tracking list
Your tracking list is empty




NASA's NSSDC Master Catalog

Two Line Element Set (TLE):
1 49348U 18079EZ  24197.90334835 -.00000120  00000-0  00000-0 0  9995
2 49348  12.5092  71.4324 4367667 256.6954  52.3073  2.01904285 21246
Source of the keplerian elements: AFSPC